Powrót do katalogu

DELTA 1 DEB

AktywnySSO
NORAD 10875·DEBRIS·🇺🇸 United States

Wystrzelony Jul 29, 1976 z Vandenberg Space Force Base

Loading…

Następne Przeloty (najbliższe 24 godziny)

TLE

ŚwieżeSource: Space-Track

Epoka: Sep 14, 2026, 08:16 UTC

1 10875U 76077DD  26257.34511076  .00000014  00000-0  40376-3 0  9995
2 10875 101.9888 211.8641 0033534  62.2972  92.4137 12.47083108280232

Śledź DELTA 1 DEB w czasie rzeczywistym z AllMySat

Download on the App Store